Location: Endfield
(51.6667°N, 0.0667°W)
Time: 04:02:46
(UTC+00:00)

FALCON 9 R/B - Pass Details

Date: 19 May 2024
Orbit: 299 x 9677 km, 34.5° (Epoch: 21 June)

Event Time Altitude Azimuth Distance (km) Brightness Sun altitude
Rises 21:26:23 0° 238° (WSW) 3,278 5.3 -11.1°
Reaches altitude 10° 21:28:25 10° 225° (SW) 2,800 4.8 -11.3°
Maximum altitude 21:34:22 29° 167° (SSE) 2,956 4.5 -11.8°
Drops below altitude 10° 21:49:44 10° 118° (ESE) 7,483 6.5 -13.1°
Sets 22:00:49 0° 112° (ESE) 10,463 7.3 -13.9°
